Location: Fort Worth, Tx
(32.7431°N, 97.3695°W)
Time: 07:29:54
(UTC-04:00)

Explorer 11/Cluster Stage 4 - Pass Details

Date: 05 February 2023
Orbit: 466 x 1241 km, 28.8° (Epoch: 02 April)

Event Time Altitude Azimuth Distance (km) Brightness Sun altitude
Exits shadow 07:54:02 - 265° (W) 3,558 9.3 -6.4°
Reaches altitude 10° 07:55:23 10° 264° (W) 3,123 9.1 -6.1°
Maximum altitude 08:03:19 66° 184° (S) 1,334 7.8 -4.5°
Drops below altitude 10° 08:11:17 10° 104° (ESE) 3,136 11.8 -2.9°
Sets 08:14:05 0° 101° (ESE) 4,041 13.1 -2.3°
